[Iaude] MPEC V27: 2023 VN [a=2.27,e=0.56,i=2.7,H=24.8]
    mpec at marsden.cfa.harvard.edu 
    mpec at marsden.cfa.harvard.edu
       
    Sat Nov  4 09:56:54 EDT 2023
    
    
  
M.P.E.C. 2023-V27                              Issued 2023 November 4, 13:55 UT
     The Minor Planet Electronic Circulars contain information on unusual
         minor planets, routine data on comets and natural satellites,
         and occasional editorial announcements.  They are published
    on behalf of Division F of the International Astronomical Union by the
          Minor Planet Center, Smithsonian Astrophysical Observatory,
                          Cambridge, MA 02138, U.S.A.
			  
             Prepared using the Tamkin Foundation Computer Network
                              MPC at CFA.HARVARD.EDU
            URL https://www.minorplanetcenter.net/    ISSN 1523-6714
                                    2023 VN                                     
Observations:
     K23V00N  C2023 11 01.21953623 35 22.514+12 29 03.89         19.50GVEV027F51
     K23V00N  C2023 11 01.22043723 35 23.481+12 29 12.73               VEV027F51
     K23V00N  C2023 11 01.23173623 35 35.609+12 31 06.27               VEV027F51
     K23V00N  C2023 11 01.23211723 35 35.986+12 31 09.83         19.82GVEV027F51
     K23V00N  C2023 11 01.24345923 35 48.088+12 33 02.99         19.61GVEV027F51
     K23V00N* C2023 11 03.22077400 11 32.051+17 29 24.07         20.16wXEV027F52
     K23V00N  C2023 11 03.23293300 11 44.077+17 31 03.91         20.29wXEV027F52
     K23V00N  C2023 11 03.24510100 11 56.094+17 32 43.49         20.21wXEV027F52
     K23V00N  C2023 11 03.25738100 12 08.116+17 34 22.91         20.38wXEV027F52
     K23V00N  C2023 11 03.33780800 13 20.538+17 44 20.40         20.0 GVEV027H01
     K23V00N  C2023 11 03.34173500 13 24.443+17 44 50.82         20.3 GVEV027H01
     K23V00N  C2023 11 03.35358800 13 36.333+17 46 22.54         20.5 GVEV027H01
     K23V00N  C2023 11 03.35860600 13 41.345+17 47 01.18         19.6 GVEV027H01
     K23V00N  C2023 11 03.37574700 14 03.379+17 50 05.64         19.89GVEV027F51
     K23V00N  C2023 11 03.37656400 14 04.225+17 50 12.41         19.93GVEV027F51
     K23V00N 1C2023 11 04.23552200 28 27.905+19 36 38.30         20.27GVEV027G96
     K23V00N 1C2023 11 04.24066600 28 32.704+19 37 14.66         19.95GVEV027G96
     K23V00N 1C2023 11 04.24580600 28 37.438+19 37 50.48         20.08GVEV027G96
     K23V00N 1C2023 11 04.25096000 28 42.229+19 38 26.48         19.81GVEV027G96
Observer details:
F51 Pan-STARRS 1, Haleakala.  Observers J. Bulger, T. Lowe, P. Minguez, A.
    Schultz, I. Smith.  Measurers K. Chambers, T. de Boer, J. Fairlamb, H.
    Gao, M. Huber, C.-C. Lin, E. Magnier, Y. Ramanjooloo, R. Wainscoat, R.
    Weryk.  1.8-m Ritchey-Chretien + CCD.
F52 Pan-STARRS 2, Haleakala.  Observers J. Bulger, T. Lowe, P. Minguez, A.
    Schultz, I. Smith.  Measurers K. Chambers, T. de Boer, J. Fairlamb, H.
    Gao, M. Huber, C.-C. Lin, E. Magnier, Y. Ramanjooloo, R. Wainscoat, R.
    Weryk.  1.8-m Ritchey-Chretien + CCD.
G96 Mt. Lemmon Survey.  Observer J. B. Fazekas.  Measurers E. C. Beshore, D.
    Fay, J. B. Fazekas, D. C. Fuls, A. R. Gibbs, A. D. Grauer, H. Groeller, J.
    K. Hogan, R. A. Kowalski, S. M. Larson, G. J. Leonard, D. Rankin, R. L.
    Seaman, F. C. Shelly, K. W. Wierzchos.  1.5-m reflector + 10K CCD.
H01 Magdalena Ridge Observatory, Socorro.  Observers W. H. Ryan, E. V. Ryan.
    Measurer W. H. Ryan.  2.4-m f/8.9 Ritchey-Chretien + CCD.
Orbital elements:
2023 VN                                                  Earth MOID = 0.0034 AU
Epoch 2023 Sept. 13.0 TT = JDT 2460200.5                Veres                   
M 352.07285              (2000.0)            P               Q                  
n   0.28802516     Peri.  349.87103     +0.98419737     -0.17630035             
a   2.2708186      Node    20.30592     +0.16561600     +0.88341542             
e   0.5603845      Incl.    2.73262     +0.06266488     +0.43416055             
P   3.42           H   24.85          G   0.15           U   8                  
Residuals in seconds of arc
231101 F51  0.3-  0.1-    231103 F52  0.5+  0.4+    231103 F51  0.2+  0.1+
231101 F51  0.2-  0.3-    231103 F52  0.1-  0.1-    231104 G96  0.0   0.3-
231101 F51  0.4+  0.3+    231103 H01  0.2+  0.0     231104 G96  0.3+  0.1+
231101 F51  0.0   0.0     231103 H01  0.1-  0.0     231104 G96  0.2-  0.0
231101 F51  0.0   0.0     231103 H01  0.2+  0.1+    231104 G96  0.1-  0.1+
231103 F52  0.1-  0.2-    231103 H01  0.1-  0.1+
231103 F52  0.1+  0.1+    231103 F51  0.6-  0.3-
Ephemeris:
2023 VN                  a,e,i = 2.27, 0.56, 3                   q = 0.9983
Date    TT    R. A. (2000) Decl.     Delta      r    Elong.  Phase     V
2023 10 05    18 34 03.2 -29 03 13   0.1365  1.0008    86.3    85.9    23.5
...
2023 10 20    20 13 51.9 -18 51 20   0.07395 1.0057    95.4    80.4    22.0
...
2023 10 28    22 14 48.4 -00 19 17   0.05507 1.0232   121.0    56.4    20.6
...
2023 11 03    00 07 35.3 +16 59 35   0.06033 1.0426   145.7    32.5    20.2
2023 11 04    00 24 36.4 +19 08 59   0.06291 1.0463   148.8    29.4    20.2
2023 11 05    00 40 38.9 +21 02 03   0.06589 1.0501   151.6    26.7    20.3
...
2023 11 11    01 55 13.8 +27 45 26   0.08991 1.0758   161.3    17.2    20.7
...
2023 11 19    02 50 48.0 +30 24 32   0.1319  1.1164   165.0    13.2    21.5
...
2023 12 04    03 37 14.8 +30 35 25   0.2294  1.2077   163.9    13.1    22.8
M. P. C. Staff               (C) Copyright 2023 MPC           M.P.E.C. 2023-V27
    
    
More information about the Iaude
mailing list